User: anonymous   Login
Location: Valdosta
(30.8330°N, 83.2790°W)
Time: 15:03:10
(UTC-05:00)
Language:

Uribyol 2 - Orbit

View from above orbital plane
View from above orbital plane
View from above satellite
View from above satellite

Ground track
Ground track

The orbit data is extracted from the following two-line orbital elements,

1 22828U 93061F   17017.92310052 -.00000019 +00000-0 +99581-5 0  9997
2 22828 098.7764 340.7747 0010198 015.8388 344.3111 14.30620245184220
Epoch (UTC): 17 January 2017 22:09:15
Eccentricity: 0.0010198
inclination: 98.7764°
perigee height: 782 km
apogee height: 797 km
right ascension of ascending node: 340.7747°
argument of perigee: 15.8388°
revolutions per day: 14.30620245
mean anomaly at epoch: 344.3111°
orbit number at epoch: 18422

The dashed part of the orbit path shows where the satellite is in the earth's shadow,  

DLR